| time (UTC) | temp F | wind direction | speed MPH | gust MPH | rain 1hr in | rain 24hr in | rain mn in | humidity % | barometer mb |
| 20260504013303 | 70 | 338 | 2.0 | 3.0 | 0.00 | 0.00 | 0.00 | 54 | 1005.0 |
| 20260504012304 | 70 | 248 | 1.0 | 2.0 | 0.00 | 0.00 | 0.00 | 56 | 1004.9 |
| 20260504011304 | 70 | 0.0 | 1.0 | 0.00 | 0.00 | 0.00 | 60 | 1004.9 | |
| 20260504010303 | 72 | 0.0 | 0.0 | 0.00 | 0.00 | 0.00 | 52 | 1004.9 | |
| 20260504005305 | 72 | 0.0 | 0.0 | 0.00 | 0.00 | 0.00 | 52 | 1005.0 | |
| 20260504004304 | 72 | 203 | 1.0 | 2.0 | 0.00 | 0.00 | 0.00 | 55 | 1005.1 |
| 20260504003304 | 74 | 0.0 | 0.0 | 0.00 | 0.00 | 0.00 | 52 | 1005.2 | |
| 20260504002304 | 75 | 0.0 | 1.0 | 0.00 | 0.00 | 0.00 | 46 | 1005.2 | |
| 20260504001323 | 76 | 203 | 1.0 | 2.0 | 0.00 | 0.00 | 0.00 | 41 | 1005.3 |
| 20260504000303 | 77 | 0.0 | 1.0 | 0.00 | 0.00 | 0.00 | 40 | 1005.5 | |
| 20260503235304 | 78 | 225 | 2.0 | 3.0 | 0.00 | 0.00 | 0.00 | 38 | 1005.6 |
| 20260503234323 | 78 | 225 | 4.0 | 5.0 | 0.00 | 0.00 | 0.00 | 37 | 1005.7 |
| 20260503233323 | 78 | 203 | 5.0 | 8.0 | 0.00 | 0.00 | 0.00 | 37 | 1005.9 |
| 20260503232305 | 79 | 225 | 7.0 | 9.0 | 0.00 | 0.00 | 0.00 | 36 | 1006.0 |
| 20260503231323 | 79 | 225 | 5.0 | 8.0 | 0.00 | 0.00 | 0.00 | 35 | 1006.1 |
| 20260503230303 | 80 | 225 | 7.0 | 12.0 | 0.00 | 0.00 | 0.00 | 32 | 1006.2 |
| 20260503225304 | 81 | 225 | 6.0 | 9.0 | 0.00 | 0.00 | 0.00 | 34 | 1006.0 |
| 20260503224303 | 81 | 248 | 8.0 | 13.0 | 0.00 | 0.00 | 0.00 | 32 | 1006.1 |
| 20260503223302 | 82 | 248 | 13.0 | 18.0 | 0.00 | 0.00 | 0.00 | 30 | 1006.2 |
| 20260503222304 | 82 | 270 | 10.0 | 14.0 | 0.00 | 0.00 | 0.00 | 31 | 1006.2 |
| 20260503221303 | 82 | 248 | 9.0 | 11.0 | 0.00 | 0.00 | 0.00 | 33 | 1006.4 |
| 20260503220303 | 82 | 225 | 12.0 | 15.0 | 0.00 | 0.00 | 0.00 | 36 | 1006.6 |
| 20260503215304 | 82 | 225 | 12.0 | 17.0 | 0.00 | 0.00 | 0.00 | 37 | 1006.6 |
| 20260503214302 | 82 | 248 | 13.0 | 18.0 | 0.00 | 0.00 | 0.00 | 35 | 1006.7 |
| 20260503213303 | 82 | 248 | 7.0 | 9.0 | 0.00 | 0.00 | 0.00 | 37 | 1006.8 |
| 20260503212304 | 82 | 248 | 10.0 | 19.0 | 0.00 | 0.00 | 0.00 | 40 | 1006.9 |
| 20260503211303 | 81 | 270 | 17.0 | 19.0 | 0.00 | 0.00 | 0.00 | 38 | 1007.1 |
| 20260503210323 | 81 | 248 | 12.0 | 18.0 | 0.00 | 0.00 | 0.00 | 37 | 1007.3 |
| 20260503205307 | 81 | 248 | 8.0 | 13.0 | 0.00 | 0.00 | 0.00 | 39 | 1007.3 |
| 20260503204302 | 81 | 270 | 6.0 | 8.0 | 0.00 | 0.00 | 0.00 | 45 | 1007.6 |
| 20260503203304 | 80 | 203 | 10.0 | 16.0 | 0.00 | 0.00 | 0.00 | 45 | 1007.6 |
| 20260503202304 | 80 | 248 | 8.0 | 11.0 | 0.00 | 0.00 | 0.00 | 46 | 1007.9 |
| 20260503201302 | 79 | 225 | 8.0 | 12.0 | 0.00 | 0.00 | 0.00 | 45 | 1007.9 |
| 20260503200304 | 79 | 248 | 9.0 | 14.0 | 0.00 | 0.00 | 0.00 | 45 | 1008.1 |
| 20260503195304 | 79 | 248 | 14.0 | 20.0 | 0.00 | 0.00 | 0.00 | 46 | 1008.3 |
| 20260503194303 | 78 | 225 | 8.0 | 11.0 | 0.00 | 0.00 | 0.00 | 47 | 1008.6 |
| 20260503193302 | 78 | 225 | 9.0 | 16.0 | 0.00 | 0.00 | 0.00 | 47 | 1008.6 |
| 20260503192322 | 78 | 203 | 9.0 | 12.0 | 0.00 | 0.00 | 0.00 | 49 | 1008.7 |
| 20260503191323 | 77 | 225 | 8.0 | 13.0 | 0.00 | 0.00 | 0.00 | 49 | 1008.8 |
| 20260503190322 | 77 | 225 | 10.0 | 12.0 | 0.00 | 0.00 | 0.00 | 47 | 1009.0 |
| 20260503185304 | 76 | 248 | 10.0 | 16.0 | 0.00 | 0.00 | 0.00 | 52 | 1009.2 |
| 20260503184302 | 76 | 225 | 11.0 | 14.0 | 0.00 | 0.00 | 0.00 | 48 | 1009.2 |
| 20260503183324 | 75 | 225 | 12.0 | 17.0 | 0.00 | 0.00 | 0.00 | 49 | 1009.4 |
| 20260503182304 | 74 | 203 | 10.0 | 17.0 | 0.00 | 0.00 | 0.00 | 50 | 1009.4 |
| 20260503181302 | 74 | 225 | 10.0 | 14.0 | 0.00 | 0.00 | 0.00 | 49 | 1009.6 |
| 20260503180302 | 74 | 225 | 10.0 | 16.0 | 0.00 | 0.00 | 0.00 | 53 | 1009.9 |
| 20260503175304 | 74 | 203 | 7.0 | 13.0 | 0.00 | 0.00 | 0.00 | 52 | 1010.1 |
| 20260503174329 | 73 | 248 | 11.0 | 16.0 | 0.00 | 0.00 | 0.00 | 52 | 1010.3 |
| 20260503173303 | 73 | 203 | 10.0 | 13.0 | 0.00 | 0.00 | 0.00 | 51 | 1010.5 |
| 20260503172304 | 72 | 225 | 10.0 | 14.0 | 0.00 | 0.00 | 0.00 | 51 | 1010.6 |
| 20260503171302 | 71 | 225 | 13.0 | 17.0 | 0.00 | 0.00 | 0.00 | 51 | 1010.8 |
| 20260503170302 | 71 | 248 | 10.0 | 16.0 | 0.00 | 0.00 | 0.00 | 51 | 1010.9 |
| 20260503150306 | 64 | 225 | 15.0 | 20.0 | 0.00 | 0.00 | 0.00 | 56 | 1011.2 |
| 20260503140302 | 57 | 203 | 6.0 | 9.0 | 0.00 | 0.00 | 0.00 | 62 | 1012.0 |
| 20260503131302 | 53 | 180 | 6.0 | 11.0 | 0.00 | 0.00 | 0.00 | 65 | 1012.1 |
| 20260503130301 | 52 | 225 | 7.0 | 10.0 | 0.00 | 0.00 | 0.00 | 65 | 1012.2 |
| 20260503110303 | 48 | 203 | 7.0 | 10.0 | 0.00 | 0.00 | 0.00 | 65 | 1012.3 |
| 20260503090303 | 49 | 203 | 5.0 | 8.0 | 0.00 | 0.00 | 0.00 | 66 | 1013.5 |
| 20260503081303 | 47 | 180 | 3.0 | 4.0 | 0.00 | 0.00 | 0.00 | 69 | 1013.8 |
| 20260503080303 | 47 | 180 | 2.0 | 4.0 | 0.00 | 0.00 | 0.00 | 70 | 1013.9 |
| 20260503072305 | 48 | 203 | 3.0 | 4.0 | 0.00 | 0.00 | 0.00 | 67 | 1014.1 |
| 20260503071303 | 48 | 180 | 2.0 | 5.0 | 0.00 | 0.00 | 0.00 | 67 | 1014.1 |
| 20260503070304 | 49 | 180 | 4.0 | 6.0 | 0.00 | 0.00 | 0.00 | 66 | 1014.2 |
| 20260503060303 | 50 | 203 | 4.0 | 6.0 | 0.00 | 0.00 | 0.00 | 63 | 1014.9 |
| 20260503054346 | 50 | 180 | 4.0 | 6.0 | 0.00 | 0.00 | 0.00 | 62 | 1015.1 |
| 20260503053303 | 50 | 180 | 3.0 | 6.0 | 0.00 | 0.00 | 0.00 | 64 | 1015.2 |
| 20260503052305 | 50 | 203 | 4.0 | 9.0 | 0.00 | 0.00 | 0.00 | 63 | 1015.1 |
| 20260503051323 | 50 | 180 | 3.0 | 5.0 | 0.00 | 0.00 | 0.00 | 64 | 1015.2 |
| 20260503050307 | 49 | 180 | 3.0 | 4.0 | 0.00 | 0.00 | 0.00 | 67 | 1015.3 |
| 20260503045308 | 50 | 158 | 2.0 | 4.0 | 0.00 | 0.00 | 0.00 | 66 | 1015.3 |
| 20260503044304 | 50 | 180 | 2.0 | 4.0 | 0.00 | 0.00 | 0.00 | 65 | 1015.5 |
| 20260503043303 | 51 | 180 | 2.0 | 4.0 | 0.00 | 0.00 | 0.00 | 64 | 1015.6 |
| 20260503042305 | 50 | 180 | 2.0 | 3.0 | 0.00 | 0.00 | 0.00 | 63 | 1015.5 |
| 20260503041303 | 50 | 180 | 2.0 | 3.0 | 0.00 | 0.00 | 0.00 | 63 | 1015.5 |
| 20260503040303 | 50 | 203 | 1.0 | 2.0 | 0.00 | 0.00 | 0.00 | 66 | 1015.7 |
| 20260503035343 | 50 | 180 | 1.0 | 1.0 | 0.00 | 0.00 | 0.00 | 65 | 1015.7 |
| 20260503034324 | 50 | 203 | 1.0 | 2.0 | 0.00 | 0.00 | 0.00 | 65 | 1015.8 |
| 20260503033323 | 50 | 203 | 2.0 | 4.0 | 0.00 | 0.00 | 0.00 | 66 | 1015.8 |
| 20260503032304 | 49 | 225 | 2.0 | 3.0 | 0.00 | 0.00 | 0.00 | 71 | 1015.8 |
| 20260503031303 | 49 | 225 | 1.0 | 2.0 | 0.00 | 0.00 | 0.00 | 69 | 1015.8 |
| 20260503030303 | 49 | 225 | 1.0 | 1.0 | 0.00 | 0.00 | 0.00 | 72 | 1015.9 |
| 20260503025305 | 50 | 225 | 1.0 | 2.0 | 0.00 | 0.00 | 0.00 | 70 | 1015.9 |
| 20260503024303 | 50 | 225 | 1.0 | 1.0 | 0.00 | 0.00 | 0.00 | 70 | 1015.9 |
| 20260503023303 | 52 | 225 | 2.0 | 3.0 | 0.00 | 0.00 | 0.00 | 59 | 1016.0 |
| 20260503022305 | 52 | 225 | 2.0 | 3.0 | 0.00 | 0.00 | 0.00 | 55 | 1016.0 |
| 20260503021303 | 52 | 225 | 1.0 | 2.0 | 0.00 | 0.00 | 0.00 | 67 | 1016.0 |
| 20260503020304 | 53 | 0.0 | 0.0 | 0.00 | 0.00 | 0.00 | 55 | 1015.9 | |
| 20260503015305 | 53 | 0.0 | 0.0 | 0.00 | 0.00 | 0.00 | 54 | 1015.8 | |
| 20260503014303 | 54 | 248 | 1.0 | 1.0 | 0.00 | 0.00 | 0.00 | 51 | 1015.7 |